Time,TemperatureF,DewpointF,PressureIn,WindDirection,WindDirectionDegrees,WindSpeedMPH,WindSpeedGustMPH,Humidity,HourlyPrecipIn,Conditions,Clouds,dailyrainin,SoftwareType,DateUTC
2013-06-13 00:00:00,61.6,60.0,29.74,NNE,13,18.1,21.8,93,0.00,,,0.53,SSEC-RIG,2013-06-13 05:00:00,
2013-06-13 00:05:00,61.6,60.0,29.74,NNE,14,16.3,22.2,93,0.00,,,0.53,SSEC-RIG,2013-06-13 05:05:00,
2013-06-13 00:10:00,61.5,59.9,29.74,North,11,16.8,22.7,93,0.00,,,0.53,SSEC-RIG,2013-06-13 05:10:00,
2013-06-13 00:15:00,61.4,59.8,29.74,North,9,16.1,20.8,93,0.00,,,0.53,SSEC-RIG,2013-06-13 05:15:00,
2013-06-13 00:20:00,61.3,59.5,29.74,NNE,18,17.0,22.4,93,0.00,,,0.53,SSEC-RIG,2013-06-13 05:20:00,
2013-06-13 00:25:00,61.1,59.0,29.74,NNE,26,16.8,20.3,92,0.00,,,0.53,SSEC-RIG,2013-06-13 05:25:00,
2013-06-13 00:35:00,61.0,58.3,29.74,NNE,23,15.0,19.2,90,0.00,,,0.53,SSEC-RIG,2013-06-13 05:35:00,
2013-06-13 00:40:00,60.9,58.1,29.74,NNE,22,15.6,19.7,90,0.00,,,0.53,SSEC-RIG,2013-06-13 05:40:00,
2013-06-13 00:45:00,60.8,58.0,29.75,NNE,21,12.4,19.6,90,0.00,,,0.53,SSEC-RIG,2013-06-13 05:45:00,
2013-06-13 00:50:00,60.7,57.6,29.75,NNE,15,15.0,19.9,88,0.00,,,0.53,SSEC-RIG,2013-06-13 05:50:00,
2013-06-13 00:55:00,60.7,57.2,29.75,North,11,12.7,18.8,87,0.00,,,0.53,SSEC-RIG,2013-06-13 05:55:00,
2013-06-13 01:00:00,60.7,57.2,29.75,NNE,12,11.0,-999.0,87,0.00,,,0.53,SSEC-RIG,2013-06-13 06:00:00,
2013-06-13 01:05:00,60.6,57.1,29.76,North,11,9.7,-999.0,87,0.00,,,0.53,SSEC-RIG,2013-06-13 06:05:00,
2013-06-13 01:10:00,60.5,56.8,29.77,North,4,9.2,-999.0,87,0.00,,,0.53,SSEC-RIG,2013-06-13 06:10:00,
2013-06-13 01:15:00,60.4,56.6,29.76,North,5,10.5,-999.0,86,0.00,,,0.53,SSEC-RIG,2013-06-13 06:15:00,
2013-06-13 01:20:00,60.4,56.3,29.76,North,9,12.5,-999.0,85,0.00,,,0.53,SSEC-RIG,2013-06-13 06:20:00,
2013-06-13 01:25:00,60.4,56.3,29.77,North,1,13.3,17.6,85,0.00,,,0.53,SSEC-RIG,2013-06-13 06:25:00,
2013-06-13 01:30:00,60.4,56.3,29.77,North,357,13.4,16.4,85,0.00,,,0.53,SSEC-RIG,2013-06-13 06:30:00,
2013-06-13 01:35:00,60.4,56.2,29.77,North,4,14.1,20.0,85,0.00,,,0.53,SSEC-RIG,2013-06-13 06:35:00,
2013-06-13 01:40:00,60.6,56.8,29.77,North,359,11.5,-999.0,86,0.00,,,0.53,SSEC-RIG,2013-06-13 06:40:00,
2013-06-13 01:45:00,60.4,56.7,29.77,North,359,12.3,16.0,87,0.00,,,0.53,SSEC-RIG,2013-06-13 06:45:00,
2013-06-13 01:50:00,60.5,56.8,29.78,North,5,10.1,-999.0,87,0.00,,,0.53,SSEC-RIG,2013-06-13 06:50:00,
2013-06-13 01:55:00,60.6,56.5,29.78,North,1,10.1,-999.0,85,0.00,,,0.53,SSEC-RIG,2013-06-13 06:55:00,
2013-06-13 02:05:00,60.6,56.2,29.78,North,7,11.9,16.5,84,0.00,,,0.53,SSEC-RIG,2013-06-13 07:05:00,
2013-06-13 02:10:00,60.7,55.7,29.78,North,8,12.4,17.2,83,0.00,,,0.53,SSEC-RIG,2013-06-13 07:10:00,
2013-06-13 02:20:00,60.9,55.8,29.79,North,5,11.6,16.5,83,0.00,,,0.53,SSEC-RIG,2013-06-13 07:20:00,
2013-06-13 02:25:00,60.8,55.8,29.79,North,0,13.8,17.0,83,0.00,,,0.53,SSEC-RIG,2013-06-13 07:25:00,
2013-06-13 02:30:00,60.7,55.7,29.79,North,2,11.7,-999.0,83,0.00,,,0.53,SSEC-RIG,2013-06-13 07:30:00,
2013-06-13 02:35:00,60.7,56.1,29.80,North,350,11.5,-999.0,84,0.00,,,0.53,SSEC-RIG,2013-06-13 07:35:00,
2013-06-13 02:40:00,60.7,56.0,29.80,North,351,11.5,-999.0,84,0.00,,,0.53,SSEC-RIG,2013-06-13 07:40:00,
2013-06-13 02:50:00,60.8,55.7,29.80,North,349,10.8,-999.0,82,0.00,,,0.53,SSEC-RIG,2013-06-13 07:50:00,
2013-06-13 02:55:00,60.9,55.8,29.81,NNW,344,10.8,-999.0,82,0.00,,,0.53,SSEC-RIG,2013-06-13 07:55:00,
2013-06-13 03:00:00,61.1,55.7,29.81,NNW,345,9.1,-999.0,81,0.00,,,0.53,SSEC-RIG,2013-06-13 08:00:00,
2013-06-13 03:05:00,61.3,55.8,29.81,NNW,347,8.0,-999.0,81,0.00,,,0.53,SSEC-RIG,2013-06-13 08:05:00,
2013-06-13 03:10:00,61.3,55.9,29.81,NNW,346,7.4,-999.0,81,0.00,,,0.53,SSEC-RIG,2013-06-13 08:10:00,
2013-06-13 03:20:00,61.2,55.7,29.81,NNW,342,9.5,-999.0,81,0.00,,,0.53,SSEC-RIG,2013-06-13 08:20:00,
2013-06-13 03:25:00,61.3,55.8,29.81,NNW,340,8.6,-999.0,81,0.00,,,0.53,SSEC-RIG,2013-06-13 08:25:00,
2013-06-13 03:30:00,61.2,55.6,29.82,NNW,339,10.0,-999.0,81,0.00,,,0.53,SSEC-RIG,2013-06-13 08:30:00,
2013-06-13 03:35:00,61.2,55.6,29.82,NNW,333,8.2,-999.0,81,0.00,,,0.53,SSEC-RIG,2013-06-13 08:35:00,
2013-06-13 03:40:00,61.0,55.5,29.82,NNW,329,10.0,-999.0,81,0.00,,,0.53,SSEC-RIG,2013-06-13 08:40:00,
2013-06-13 03:45:00,60.9,55.6,29.82,NNW,333,8.8,-999.0,82,0.00,,,0.53,SSEC-RIG,2013-06-13 08:45:00,
2013-06-13 03:50:00,60.8,55.6,29.82,NNW,342,9.9,-999.0,82,0.00,,,0.53,SSEC-RIG,2013-06-13 08:50:00,
2013-06-13 03:55:00,60.8,55.8,29.82,NNW,345,8.9,-999.0,82,0.00,,,0.53,SSEC-RIG,2013-06-13 08:55:00,
2013-06-13 04:00:00,61.1,55.7,29.83,NNW,342,10.9,-999.0,82,0.00,,,0.53,SSEC-RIG,2013-06-13 09:00:00,
2013-06-13 04:05:00,61.1,55.9,29.83,NNW,343,10.5,-999.0,82,0.00,,,0.53,SSEC-RIG,2013-06-13 09:05:00,
2013-06-13 04:10:00,61.1,55.7,29.83,NNW,346,11.3,-999.0,81,0.00,,,0.53,SSEC-RIG,2013-06-13 09:10:00,
2013-06-13 04:15:00,61.1,55.6,29.83,NNW,345,10.0,-999.0,81,0.00,,,0.53,SSEC-RIG,2013-06-13 09:15:00,
2013-06-13 04:20:00,61.1,55.3,29.82,North,352,8.5,-999.0,80,0.00,,,0.53,SSEC-RIG,2013-06-13 09:20:00,
2013-06-13 04:25:00,61.1,55.3,29.83,NNW,340,10.3,-999.0,80,0.00,,,0.53,SSEC-RIG,2013-06-13 09:25:00,
2013-06-13 04:30:00,61.0,55.4,29.83,North,353,11.2,-999.0,81,0.00,,,0.53,SSEC-RIG,2013-06-13 09:30:00,
2013-06-13 04:35:00,61.2,55.4,29.83,NNW,342,10.2,-999.0,80,0.00,,,0.53,SSEC-RIG,2013-06-13 09:35:00,
2013-06-13 04:40:00,61.0,55.5,29.83,NNW,337,8.7,-999.0,81,0.00,,,0.53,SSEC-RIG,2013-06-13 09:40:00,
2013-06-13 04:45:00,61.0,55.4,29.83,NNW,335,8.1,-999.0,81,0.00,,,0.53,SSEC-RIG,2013-06-13 09:45:00,
2013-06-13 04:50:00,60.8,55.2,29.84,NNW,331,7.3,-999.0,81,0.00,,,0.53,SSEC-RIG,2013-06-13 09:50:00,
2013-06-13 04:55:00,61.0,54.9,29.84,NNW,339,8.9,-999.0,79,0.00,,,0.53,SSEC-RIG,2013-06-13 09:55:00,
2013-06-13 05:00:00,61.0,54.8,29.84,NNW,343,7.9,-999.0,79,0.00,,,0.53,SSEC-RIG,2013-06-13 10:00:00,
2013-06-13 05:05:00,61.1,54.8,29.84,NNW,335,8.0,-999.0,79,0.00,,,0.53,SSEC-RIG,2013-06-13 10:05:00,
2013-06-13 05:10:00,60.9,54.9,29.84,NNW,327,8.4,-999.0,79,0.00,,,0.53,SSEC-RIG,2013-06-13 10:10:00,
2013-06-13 05:15:00,60.6,55.1,29.85,NNW,328,7.5,-999.0,81,0.00,,,0.53,SSEC-RIG,2013-06-13 10:15:00,
2013-06-13 05:25:00,60.4,54.9,29.86,NNW,333,10.5,-999.0,81,0.00,,,0.53,SSEC-RIG,2013-06-13 10:25:00,
2013-06-13 05:30:00,60.3,55.0,29.86,NNW,334,9.0,-999.0,82,0.00,,,0.53,SSEC-RIG,2013-06-13 10:30:00,
2013-06-13 05:35:00,60.2,55.1,29.86,NNW,336,10.2,-999.0,82,0.00,,,0.53,SSEC-RIG,2013-06-13 10:35:00,
2013-06-13 05:40:00,60.3,54.9,29.86,NNW,340,11.0,-999.0,81,0.00,,,0.53,SSEC-RIG,2013-06-13 10:40:00,
2013-06-13 05:50:00,60.5,54.8,29.86,NNW,340,11.5,-999.0,81,0.00,,,0.53,SSEC-RIG,2013-06-13 10:50:00,
2013-06-13 05:55:00,60.5,54.8,29.87,NNW,344,12.2,-999.0,80,0.00,,,0.53,SSEC-RIG,2013-06-13 10:55:00,
2013-06-13 06:00:00,60.6,55.0,29.87,North,351,10.7,-999.0,81,0.00,,,0.53,SSEC-RIG,2013-06-13 11:00:00,
2013-06-13 06:10:00,60.8,55.0,29.88,NNW,342,11.1,-999.0,80,0.00,,,0.53,SSEC-RIG,2013-06-13 11:10:00,
2013-06-13 06:15:00,61.0,55.0,29.89,NNW,342,8.9,-999.0,79,0.00,,,0.53,SSEC-RIG,2013-06-13 11:15:00,
2013-06-13 06:20:00,61.2,54.6,29.89,NNW,341,10.4,-999.0,78,0.00,,,0.53,SSEC-RIG,2013-06-13 11:20:00,
2013-06-13 06:30:00,61.3,54.6,29.89,NNW,340,8.5,-999.0,78,0.00,,,0.53,SSEC-RIG,2013-06-13 11:30:00,
2013-06-13 06:35:00,61.5,54.7,29.89,NNW,340,7.2,-999.0,77,0.00,,,0.53,SSEC-RIG,2013-06-13 11:35:00,
2013-06-13 06:40:00,61.7,54.5,29.89,NNW,341,8.7,-999.0,76,0.00,,,0.53,SSEC-RIG,2013-06-13 11:40:00,
2013-06-13 06:45:00,62.0,54.3,29.89,NNW,344,8.4,-999.0,75,0.00,,,0.53,SSEC-RIG,2013-06-13 11:45:00,
2013-06-13 06:50:00,62.2,54.4,29.89,NNW,348,8.6,-999.0,75,0.00,,,0.53,SSEC-RIG,2013-06-13 11:50:00,
2013-06-13 07:00:00,62.7,54.3,29.89,NNW,348,9.5,-999.0,73,0.00,,,0.53,SSEC-RIG,2013-06-13 12:00:00,
2013-06-13 07:05:00,62.8,54.4,29.90,North,349,8.8,-999.0,73,0.00,,,0.53,SSEC-RIG,2013-06-13 12:05:00,
2013-06-13 07:10:00,62.9,54.7,29.90,NNW,345,7.4,-999.0,74,0.00,,,0.53,SSEC-RIG,2013-06-13 12:10:00,
2013-06-13 07:15:00,63.0,54.8,29.90,NNW,348,7.4,-999.0,74,0.00,,,0.53,SSEC-RIG,2013-06-13 12:15:00,
2013-06-13 07:20:00,63.1,54.8,29.90,NNW,341,8.5,-999.0,73,0.00,,,0.53,SSEC-RIG,2013-06-13 12:20:00,
2013-06-13 07:25:00,63.2,55.0,29.91,NNW,346,8.2,-999.0,74,0.00,,,0.53,SSEC-RIG,2013-06-13 12:25:00,
2013-06-13 07:30:00,63.2,55.2,29.91,North,352,8.7,-999.0,74,0.00,,,0.53,SSEC-RIG,2013-06-13 12:30:00,
2013-06-13 07:35:00,63.3,55.3,29.91,North,349,8.1,-999.0,74,0.00,,,0.53,SSEC-RIG,2013-06-13 12:35:00,
2013-06-13 07:40:00,63.4,55.3,29.91,North,350,9.4,-999.0,74,0.00,,,0.53,SSEC-RIG,2013-06-13 12:40:00,
2013-06-13 07:45:00,63.5,55.2,29.91,North,354,10.7,-999.0,73,0.00,,,0.53,SSEC-RIG,2013-06-13 12:45:00,
2013-06-13 07:50:00,63.7,55.4,29.92,North,358,9.8,-999.0,73,0.00,,,0.53,SSEC-RIG,2013-06-13 12:50:00,
2013-06-13 07:55:00,63.8,54.9,29.92,North,360,11.3,-999.0,72,0.00,,,0.53,SSEC-RIG,2013-06-13 12:55:00,
2013-06-13 08:00:00,63.9,55.2,29.92,North,2,10.0,-999.0,72,0.00,,,0.53,SSEC-RIG,2013-06-13 13:00:00,
2013-06-13 08:05:00,64.3,55.2,29.92,North,11,9.9,-999.0,71,0.00,,,0.53,SSEC-RIG,2013-06-13 13:05:00,
2013-06-13 08:10:00,64.4,54.8,29.92,North,3,10.4,-999.0,70,0.00,,,0.53,SSEC-RIG,2013-06-13 13:10:00,
2013-06-13 08:15:00,64.6,54.4,29.92,NNE,16,11.0,-999.0,69,0.00,,,0.53,SSEC-RIG,2013-06-13 13:15:00,
2013-06-13 08:20:00,65.0,54.8,29.92,NNE,12,7.8,-999.0,69,0.00,,,0.53,SSEC-RIG,2013-06-13 13:20:00,
2013-06-13 08:30:00,65.1,54.8,29.93,North,11,7.2,-999.0,69,0.00,,,0.53,SSEC-RIG,2013-06-13 13:30:00,
2013-06-13 08:35:00,65.0,54.7,29.93,NNE,12,9.2,-999.0,68,0.00,,,0.53,SSEC-RIG,2013-06-13 13:35:00,
2013-06-13 08:40:00,65.0,54.5,29.93,NNE,15,10.1,-999.0,68,0.00,,,0.53,SSEC-RIG,2013-06-13 13:40:00,
2013-06-13 08:45:00,65.3,54.9,29.93,NNE,15,8.8,-999.0,68,0.00,,,0.53,SSEC-RIG,2013-06-13 13:45:00,
2013-06-13 08:50:00,65.4,54.4,29.93,NNE,20,10.5,-999.0,67,0.00,,,0.53,SSEC-RIG,2013-06-13 13:50:00,
2013-06-13 08:55:00,65.2,54.0,29.93,NNE,19,10.3,-999.0,66,0.00,,,0.53,SSEC-RIG,2013-06-13 13:55:00,
2013-06-13 09:00:00,65.7,54.6,29.93,NNE,14,7.4,-999.0,66,0.00,,,0.53,SSEC-RIG,2013-06-13 14:00:00,
2013-06-13 09:05:00,66.0,53.7,29.93,NNE,17,9.3,-999.0,64,0.00,,,0.53,SSEC-RIG,2013-06-13 14:05:00,
2013-06-13 09:10:00,66.0,53.9,29.94,NNE,17,8.6,-999.0,64,0.00,,,0.53,SSEC-RIG,2013-06-13 14:10:00,
2013-06-13 09:15:00,66.1,54.2,29.94,North,11,7.1,-999.0,65,0.00,,,0.53,SSEC-RIG,2013-06-13 14:15:00,
2013-06-13 09:20:00,66.6,54.4,29.94,North,10,5.1,-999.0,64,0.00,,,0.53,SSEC-RIG,2013-06-13 14:20:00,
2013-06-13 09:25:00,66.5,53.8,29.94,North,11,7.5,-999.0,63,0.00,,,0.53,SSEC-RIG,2013-06-13 14:25:00,
2013-06-13 09:30:00,66.5,53.9,29.95,NNE,15,9.5,-999.0,63,0.00,,,0.53,SSEC-RIG,2013-06-13 14:30:00,
2013-06-13 09:40:00,66.9,54.5,29.95,North,10,7.5,-999.0,64,0.00,,,0.53,SSEC-RIG,2013-06-13 14:40:00,
2013-06-13 09:45:00,66.8,55.4,29.95,North,0,6.4,-999.0,66,0.00,,,0.53,SSEC-RIG,2013-06-13 14:45:00,
2013-06-13 09:55:00,67.0,55.4,29.95,North,3,7.7,-999.0,65,0.00,,,0.53,SSEC-RIG,2013-06-13 14:55:00,
2013-06-13 10:00:00,67.5,55.8,29.95,North,358,6.4,-999.0,65,0.00,,,0.53,SSEC-RIG,2013-06-13 15:00:00,
2013-06-13 10:05:00,67.3,56.1,29.95,NNE,14,7.4,-999.0,66,0.00,,,0.53,SSEC-RIG,2013-06-13 15:05:00,
2013-06-13 10:10:00,67.6,56.1,29.95,North,10,6.4,-999.0,66,0.00,,,0.53,SSEC-RIG,2013-06-13 15:10:00,
2013-06-13 10:15:00,67.6,55.6,29.95,NNE,17,7.0,-999.0,65,0.00,,,0.53,SSEC-RIG,2013-06-13 15:15:00,
2013-06-13 10:20:00,67.8,55.7,29.95,NNE,15,7.3,-999.0,64,0.00,,,0.53,SSEC-RIG,2013-06-13 15:20:00,
2013-06-13 10:25:00,67.7,55.4,29.95,NNE,15,7.6,-999.0,64,0.00,,,0.53,SSEC-RIG,2013-06-13 15:25:00,
2013-06-13 10:30:00,68.3,55.7,29.95,North,6,5.9,-999.0,63,0.00,,,0.53,SSEC-RIG,2013-06-13 15:30:00,
2013-06-13 10:35:00,68.1,55.7,29.95,North,6,6.2,-999.0,64,0.00,,,0.53,SSEC-RIG,2013-06-13 15:35:00,
2013-06-13 10:40:00,68.5,55.8,29.95,North,358,4.9,-999.0,63,0.00,,,0.53,SSEC-RIG,2013-06-13 15:40:00,
2013-06-13 10:45:00,68.7,55.8,29.96,North,11,5.6,-999.0,63,0.00,,,0.53,SSEC-RIG,2013-06-13 15:45:00,
2013-06-13 10:50:00,68.8,55.3,29.96,NNE,13,8.0,-999.0,61,0.00,,,0.53,SSEC-RIG,2013-06-13 15:50:00,
2013-06-13 10:55:00,69.0,55.1,29.96,North,10,5.7,-999.0,60,0.00,,,0.53,SSEC-RIG,2013-06-13 15:55:00,
2013-06-13 11:05:00,68.8,54.6,29.97,NNE,14,7.9,-999.0,60,0.00,,,0.53,SSEC-RIG,2013-06-13 16:05:00,
2013-06-13 11:10:00,69.4,55.9,29.97,North,355,6.1,-999.0,61,0.00,,,0.53,SSEC-RIG,2013-06-13 16:10:00,
2013-06-13 11:15:00,68.9,55.6,29.97,North,0,7.1,-999.0,62,0.00,,,0.53,SSEC-RIG,2013-06-13 16:15:00,
2013-06-13 11:20:00,69.2,55.0,29.97,North,6,8.4,-999.0,60,0.00,,,0.53,SSEC-RIG,2013-06-13 16:20:00,
2013-06-13 11:25:00,69.2,54.8,29.97,North,7,9.2,-999.0,59,0.00,,,0.53,SSEC-RIG,2013-06-13 16:25:00,
2013-06-13 11:30:00,69.3,55.0,29.97,NNE,17,7.8,-999.0,59,0.00,,,0.53,SSEC-RIG,2013-06-13 16:30:00,
2013-06-13 11:35:00,69.9,55.6,29.97,North,355,7.0,-999.0,59,0.00,,,0.53,SSEC-RIG,2013-06-13 16:35:00,
2013-06-13 11:40:00,70.0,55.5,29.98,North,360,6.2,-999.0,59,0.00,,,0.53,SSEC-RIG,2013-06-13 16:40:00,
2013-06-13 11:45:00,70.1,55.8,29.98,North,5,8.1,-999.0,60,0.00,,,0.53,SSEC-RIG,2013-06-13 16:45:00,
2013-06-13 11:50:00,70.0,55.1,29.98,North,354,8.3,-999.0,58,0.00,,,0.53,SSEC-RIG,2013-06-13 16:50:00,
2013-06-13 11:55:00,70.1,55.5,29.98,North,358,7.2,-999.0,59,0.00,,,0.53,SSEC-RIG,2013-06-13 16:55:00,
2013-06-13 12:00:00,70.4,54.6,29.98,North,356,8.8,-999.0,57,0.00,,,0.53,SSEC-RIG,2013-06-13 17:00:00,
2013-06-13 12:05:00,70.6,54.1,29.98,North,5,7.9,-999.0,55,0.00,,,0.53,SSEC-RIG,2013-06-13 17:05:00,
2013-06-13 12:10:00,70.8,54.1,29.98,North,9,7.7,-999.0,55,0.00,,,0.53,SSEC-RIG,2013-06-13 17:10:00,
2013-06-13 12:20:00,71.0,55.2,29.98,North,1,6.9,-999.0,57,0.00,,,0.53,SSEC-RIG,2013-06-13 17:20:00,
2013-06-13 12:25:00,71.1,55.4,29.98,NNW,347,8.3,-999.0,57,0.00,,,0.53,SSEC-RIG,2013-06-13 17:25:00,
2013-06-13 12:30:00,71.4,54.4,29.98,NNW,337,8.6,-999.0,54,0.00,,,0.53,SSEC-RIG,2013-06-13 17:30:00,
2013-06-13 12:35:00,71.7,53.9,29.98,NNW,333,11.4,16.4,53,0.00,,,0.53,SSEC-RIG,2013-06-13 17:35:00,
2013-06-13 12:40:00,71.6,54.5,29.98,North,349,9.1,-999.0,54,0.00,,,0.53,SSEC-RIG,2013-06-13 17:40:00,
2013-06-13 12:45:00,71.5,53.2,29.98,NNW,337,11.1,-999.0,52,0.00,,,0.53,SSEC-RIG,2013-06-13 17:45:00,
2013-06-13 12:50:00,71.7,53.6,29.98,North,351,10.5,-999.0,52,0.00,,,0.53,SSEC-RIG,2013-06-13 17:50:00,
2013-06-13 12:55:00,71.9,53.6,29.98,NNW,341,10.4,-999.0,52,0.00,,,0.53,SSEC-RIG,2013-06-13 17:55:00,
2013-06-13 13:00:00,72.1,54.4,29.98,NNW,344,8.6,-999.0,53,0.00,,,0.53,SSEC-RIG,2013-06-13 18:00:00,
2013-06-13 13:05:00,72.7,54.2,29.98,NNW,345,9.8,-999.0,51,0.00,,,0.53,SSEC-RIG,2013-06-13 18:05:00,
2013-06-13 13:10:00,72.3,53.9,29.98,NNW,343,10.3,16.1,51,0.00,,,0.53,SSEC-RIG,2013-06-13 18:10:00,
2013-06-13 13:15:00,72.3,53.4,29.98,North,351,12.8,18.4,51,0.00,,,0.53,SSEC-RIG,2013-06-13 18:15:00,
2013-06-13 13:20:00,72.3,53.0,29.98,North,357,14.7,18.9,50,0.00,,,0.53,SSEC-RIG,2013-06-13 18:20:00,
2013-06-13 13:25:00,72.7,54.0,29.98,NNW,343,10.1,-999.0,51,0.00,,,0.53,SSEC-RIG,2013-06-13 18:25:00,
2013-06-13 13:30:00,72.7,54.0,29.98,North,349,10.0,-999.0,51,0.00,,,0.53,SSEC-RIG,2013-06-13 18:30:00,
2013-06-13 13:35:00,72.5,54.1,29.98,North,359,8.6,-999.0,52,0.00,,,0.53,SSEC-RIG,2013-06-13 18:35:00,
2013-06-13 13:40:00,73.2,54.3,29.98,North,352,11.3,18.0,51,0.00,,,0.53,SSEC-RIG,2013-06-13 18:40:00,
2013-06-13 13:50:00,73.3,52.4,29.98,NNW,340,12.6,16.8,47,0.00,,,0.53,SSEC-RIG,2013-06-13 18:50:00,
2013-06-13 13:55:00,73.2,52.2,29.98,NNW,334,14.6,20.0,47,0.00,,,0.53,SSEC-RIG,2013-06-13 18:55:00,
2013-06-13 14:00:00,73.4,51.8,29.98,NNW,338,13.1,17.2,46,0.00,,,0.53,SSEC-RIG,2013-06-13 19:00:00,
2013-06-13 14:05:00,73.6,52.1,29.98,NNW,339,11.3,17.3,46,0.00,,,0.53,SSEC-RIG,2013-06-13 19:05:00,
2013-06-13 14:10:00,73.5,51.8,29.98,North,349,12.6,16.3,46,0.00,,,0.53,SSEC-RIG,2013-06-13 19:10:00,
2013-06-13 14:20:00,74.3,53.1,29.98,NNW,342,11.1,-999.0,47,0.00,,,0.53,SSEC-RIG,2013-06-13 19:20:00,
2013-06-13 14:25:00,74.1,53.5,29.98,NNW,341,11.6,16.0,48,0.00,,,0.53,SSEC-RIG,2013-06-13 19:25:00,
2013-06-13 14:30:00,73.8,54.4,29.98,NNW,342,12.6,-999.0,50,0.00,,,0.53,SSEC-RIG,2013-06-13 19:30:00,
2013-06-13 14:35:00,74.5,54.7,29.98,NNW,329,9.5,-999.0,49,0.00,,,0.53,SSEC-RIG,2013-06-13 19:35:00,
2013-06-13 14:40:00,74.2,54.0,29.98,NNW,348,9.5,-999.0,49,0.00,,,0.53,SSEC-RIG,2013-06-13 19:40:00,
2013-06-13 14:45:00,73.5,53.4,29.98,NNW,344,12.2,16.1,49,0.00,,,0.53,SSEC-RIG,2013-06-13 19:45:00,
2013-06-13 14:50:00,73.5,53.3,29.98,North,353,14.1,16.6,49,0.00,,,0.53,SSEC-RIG,2013-06-13 19:50:00,
2013-06-13 14:55:00,73.5,54.3,29.98,NNW,342,12.9,17.0,50,0.00,,,0.53,SSEC-RIG,2013-06-13 19:55:00,
2013-06-13 15:00:00,73.1,53.9,29.98,North,352,15.1,17.5,50,0.00,,,0.53,SSEC-RIG,2013-06-13 20:00:00,
2013-06-13 15:05:00,73.1,54.1,29.98,North,357,13.1,19.3,51,0.00,,,0.53,SSEC-RIG,2013-06-13 20:05:00,
2013-06-13 15:10:00,73.8,53.3,29.98,NNW,348,11.3,-999.0,48,0.00,,,0.53,SSEC-RIG,2013-06-13 20:10:00,
2013-06-13 15:15:00,74.0,53.2,29.98,North,357,13.0,-999.0,47,0.00,,,0.53,SSEC-RIG,2013-06-13 20:15:00,
2013-06-13 15:20:00,74.0,54.5,29.98,North,5,13.6,18.3,50,0.00,,,0.53,SSEC-RIG,2013-06-13 20:20:00,
2013-06-13 15:25:00,74.1,53.3,29.98,North,3,14.7,22.5,48,0.00,,,0.53,SSEC-RIG,2013-06-13 20:25:00,
2013-06-13 15:30:00,74.1,51.5,29.98,North,8,14.6,20.7,44,0.00,,,0.53,SSEC-RIG,2013-06-13 20:30:00,
2013-06-13 15:35:00,74.4,51.5,29.98,North,9,15.2,21.4,44,0.00,,,0.53,SSEC-RIG,2013-06-13 20:35:00,
2013-06-13 15:40:00,74.6,51.7,29.98,North,2,14.1,17.3,44,0.00,,,0.53,SSEC-RIG,2013-06-13 20:40:00,
2013-06-13 15:45:00,74.8,52.7,29.98,North,2,10.4,-999.0,45,0.00,,,0.53,SSEC-RIG,2013-06-13 20:45:00,
2013-06-13 15:50:00,74.5,53.3,29.98,North,11,13.0,-999.0,47,0.00,,,0.53,SSEC-RIG,2013-06-13 20:50:00,
2013-06-13 16:00:00,74.9,52.5,29.98,North,3,12.7,17.0,45,0.00,,,0.53,SSEC-RIG,2013-06-13 21:00:00,
2013-06-13 16:05:00,75.0,53.6,29.98,North,4,9.6,-999.0,46,0.00,,,0.53,SSEC-RIG,2013-06-13 21:05:00,
2013-06-13 16:10:00,75.2,53.0,29.98,North,9,7.6,-999.0,45,0.00,,,0.53,SSEC-RIG,2013-06-13 21:10:00,
2013-06-13 16:15:00,74.9,52.0,29.98,North,3,11.5,18.0,44,0.00,,,0.53,SSEC-RIG,2013-06-13 21:15:00,
2013-06-13 16:20:00,74.5,51.4,29.98,North,0,15.2,23.0,44,0.00,,,0.53,SSEC-RIG,2013-06-13 21:20:00,
2013-06-13 16:25:00,74.4,50.7,29.98,North,354,17.7,19.6,43,0.00,,,0.53,SSEC-RIG,2013-06-13 21:25:00,
2013-06-13 16:30:00,74.4,51.4,29.98,North,351,15.1,18.1,44,0.00,,,0.53,SSEC-RIG,2013-06-13 21:30:00,
2013-06-13 16:35:00,74.6,51.0,29.98,North,349,15.4,18.7,43,0.00,,,0.53,SSEC-RIG,2013-06-13 21:35:00,
2013-06-13 16:40:00,74.9,51.9,29.98,NNW,345,14.8,20.4,44,0.00,,,0.53,SSEC-RIG,2013-06-13 21:40:00,
2013-06-13 16:45:00,74.7,52.5,29.98,North,350,12.4,-999.0,45,0.00,,,0.53,SSEC-RIG,2013-06-13 21:45:00,
2013-06-13 16:50:00,74.6,52.7,29.98,North,351,12.7,-999.0,46,0.00,,,0.53,SSEC-RIG,2013-06-13 21:50:00,
2013-06-13 17:00:00,74.0,51.6,29.98,North,8,15.0,20.3,45,0.00,,,0.53,SSEC-RIG,2013-06-13 22:00:00,
2013-06-13 17:05:00,73.8,52.4,29.98,North,9,13.7,18.1,46,0.00,,,0.53,SSEC-RIG,2013-06-13 22:05:00,
2013-06-13 17:10:00,73.9,51.6,29.98,NNE,14,13.1,18.6,45,0.00,,,0.53,SSEC-RIG,2013-06-13 22:10:00,
2013-06-13 17:15:00,73.9,52.1,29.98,North,10,13.5,18.6,46,0.00,,,0.53,SSEC-RIG,2013-06-13 22:15:00,
2013-06-13 17:20:00,74.1,51.7,29.98,NNE,13,13.8,17.9,45,0.00,,,0.53,SSEC-RIG,2013-06-13 22:20:00,
2013-06-13 17:25:00,74.1,51.6,29.98,NNE,14,12.5,-999.0,45,0.00,,,0.53,SSEC-RIG,2013-06-13 22:25:00,
2013-06-13 17:35:00,74.5,50.3,29.98,North,7,15.1,18.5,42,0.00,,,0.53,SSEC-RIG,2013-06-13 22:35:00,
2013-06-13 17:40:00,74.8,51.0,29.98,North,10,11.4,-999.0,43,0.00,,,0.53,SSEC-RIG,2013-06-13 22:40:00,
2013-06-13 17:50:00,74.1,53.5,29.98,North,11,10.5,-999.0,48,0.00,,,0.53,SSEC-RIG,2013-06-13 22:50:00,
2013-06-13 18:00:00,74.2,54.0,29.98,North,11,9.5,-999.0,48,0.00,,,0.53,SSEC-RIG,2013-06-13 23:00:00,
2013-06-13 18:05:00,73.9,52.2,29.98,North,6,14.1,17.5,46,0.00,,,0.53,SSEC-RIG,2013-06-13 23:05:00,
2013-06-13 18:10:00,74.3,52.5,29.98,North,2,12.5,16.4,46,0.00,,,0.53,SSEC-RIG,2013-06-13 23:10:00,
2013-06-13 18:15:00,74.0,52.8,29.98,North,11,13.3,16.7,47,0.00,,,0.53,SSEC-RIG,2013-06-13 23:15:00,
2013-06-13 18:20:00,73.8,54.4,29.99,NNE,21,9.4,-999.0,50,0.00,,,0.53,SSEC-RIG,2013-06-13 23:20:00,
2013-06-13 18:25:00,73.4,54.3,29.99,NNE,27,10.7,-999.0,51,0.00,,,0.53,SSEC-RIG,2013-06-13 23:25:00,
2013-06-13 18:30:00,73.5,54.0,29.99,NNE,26,11.2,17.2,50,0.00,,,0.53,SSEC-RIG,2013-06-13 23:30:00,
2013-06-13 18:35:00,73.5,53.6,29.99,NNE,32,10.9,-999.0,49,0.00,,,0.53,SSEC-RIG,2013-06-13 23:35:00,
2013-06-13 18:40:00,73.5,53.5,29.99,NNE,33,10.0,-999.0,49,0.00,,,0.53,SSEC-RIG,2013-06-13 23:40:00,
2013-06-13 18:45:00,73.3,53.5,29.99,NNE,26,9.4,-999.0,49,0.00,,,0.53,SSEC-RIG,2013-06-13 23:45:00,
2013-06-13 18:50:00,73.1,53.2,29.99,NNE,30,9.5,-999.0,49,0.00,,,0.53,SSEC-RIG,2013-06-13 23:50:00,
2013-06-13 18:55:00,73.0,53.5,29.99,NE,41,12.1,16.9,49,0.00,,,0.53,SSEC-RIG,2013-06-13 23:55:00,
2013-06-13 19:00:00,72.8,53.8,29.99,NE,44,13.1,-999.0,50,0.00,,,0.53,SSEC-RIG,2013-06-14 00:00:00,
2013-06-13 19:05:00,72.6,53.8,30.00,NE,41,13.8,16.4,51,0.00,,,0.00,SSEC-RIG,2013-06-14 00:05:00,
2013-06-13 19:10:00,72.5,53.7,30.00,NE,45,13.3,16.2,51,0.00,,,0.00,SSEC-RIG,2013-06-14 00:10:00,
2013-06-13 19:15:00,72.5,54.1,30.00,NE,37,9.7,-999.0,52,0.00,,,0.00,SSEC-RIG,2013-06-14 00:15:00,
2013-06-13 19:20:00,72.6,53.6,30.00,NE,41,10.4,-999.0,51,0.00,,,0.00,SSEC-RIG,2013-06-14 00:20:00,
2013-06-13 19:25:00,72.5,54.0,30.00,NE,43,8.8,-999.0,51,0.00,,,0.00,SSEC-RIG,2013-06-14 00:25:00,
2013-06-13 19:30:00,72.3,54.0,30.01,NE,37,8.5,-999.0,52,0.00,,,0.00,SSEC-RIG,2013-06-14 00:30:00,
2013-06-13 19:35:00,72.4,53.8,30.01,NE,37,8.8,-999.0,51,0.00,,,0.00,SSEC-RIG,2013-06-14 00:35:00,
2013-06-13 19:40:00,72.3,54.4,30.01,NE,43,10.0,-999.0,53,0.00,,,0.00,SSEC-RIG,2013-06-14 00:40:00,
2013-06-13 19:50:00,72.1,54.5,30.01,NE,53,8.8,-999.0,53,0.00,,,0.00,SSEC-RIG,2013-06-14 00:50:00,
2013-06-13 19:55:00,71.9,54.8,30.01,ENE,57,8.3,-999.0,54,0.00,,,0.00,SSEC-RIG,2013-06-14 00:55:00,
2013-06-13 20:00:00,71.9,54.3,30.01,NE,56,7.8,-999.0,53,0.00,,,0.00,SSEC-RIG,2013-06-14 01:00:00,
2013-06-13 20:05:00,71.8,54.3,30.01,NE,52,7.6,-999.0,53,0.00,,,0.00,SSEC-RIG,2013-06-14 01:05:00,
2013-06-13 20:10:00,71.8,54.4,30.02,NE,51,6.0,-999.0,53,0.00,,,0.00,SSEC-RIG,2013-06-14 01:10:00,
2013-06-13 20:15:00,71.8,54.5,30.02,NE,52,5.9,-999.0,54,0.00,,,0.00,SSEC-RIG,2013-06-14 01:15:00,
2013-06-13 20:20:00,71.6,54.6,30.02,NE,48,5.8,-999.0,54,0.00,,,0.00,SSEC-RIG,2013-06-14 01:20:00,
2013-06-13 20:25:00,71.5,54.5,30.02,NE,42,6.9,-999.0,54,0.00,,,0.00,SSEC-RIG,2013-06-14 01:25:00,
2013-06-13 20:30:00,71.5,54.0,30.02,NE,42,7.7,-999.0,53,0.00,,,0.00,SSEC-RIG,2013-06-14 01:30:00,
2013-06-13 20:35:00,71.5,53.9,30.02,NE,42,6.9,-999.0,53,0.00,,,0.00,SSEC-RIG,2013-06-14 01:35:00,
2013-06-13 20:40:00,71.3,54.1,30.02,NE,41,7.1,-999.0,54,0.00,,,0.00,SSEC-RIG,2013-06-14 01:40:00,
2013-06-13 20:45:00,71.3,54.0,30.02,NE,43,6.3,-999.0,54,0.00,,,0.00,SSEC-RIG,2013-06-14 01:45:00,
2013-06-13 20:50:00,71.2,54.4,30.02,NE,47,6.4,-999.0,54,0.00,,,0.00,SSEC-RIG,2013-06-14 01:50:00,
2013-06-13 20:55:00,71.1,54.6,30.02,NE,48,5.7,-999.0,55,0.00,,,0.00,SSEC-RIG,2013-06-14 01:55:00,
2013-06-13 21:00:00,71.0,54.6,30.02,NE,46,4.8,-999.0,55,0.00,,,0.00,SSEC-RIG,2013-06-14 02:00:00,
2013-06-13 21:05:00,70.9,54.7,30.03,NE,53,4.4,-999.0,56,0.00,,,0.00,SSEC-RIG,2013-06-14 02:05:00,
2013-06-13 21:10:00,70.9,54.7,30.03,NE,47,3.6,-999.0,56,0.00,,,0.00,SSEC-RIG,2013-06-14 02:10:00,
2013-06-13 21:15:00,70.9,54.6,30.03,NE,49,4.0,-999.0,56,0.00,,,0.00,SSEC-RIG,2013-06-14 02:15:00,
2013-06-13 21:20:00,70.8,54.6,30.03,NE,45,4.8,-999.0,56,0.00,,,0.00,SSEC-RIG,2013-06-14 02:20:00,
2013-06-13 21:25:00,70.7,54.4,30.03,NE,52,4.5,-999.0,55,0.00,,,0.00,SSEC-RIG,2013-06-14 02:25:00,
2013-06-13 21:30:00,70.7,54.5,30.03,NE,50,4.5,-999.0,56,0.00,,,0.00,SSEC-RIG,2013-06-14 02:30:00,
2013-06-13 21:35:00,70.7,54.3,30.03,NE,52,4.7,-999.0,55,0.00,,,0.00,SSEC-RIG,2013-06-14 02:35:00,
2013-06-13 21:40:00,70.6,54.5,30.03,NE,55,4.5,-999.0,56,0.00,,,0.00,SSEC-RIG,2013-06-14 02:40:00,
2013-06-13 21:45:00,70.5,54.4,30.03,ENE,57,5.5,-999.0,56,0.00,,,0.00,SSEC-RIG,2013-06-14 02:45:00,
2013-06-13 21:50:00,70.5,54.2,30.03,ENE,57,5.6,-999.0,55,0.00,,,0.00,SSEC-RIG,2013-06-14 02:50:00,
2013-06-13 21:55:00,70.4,54.6,30.04,NE,54,5.3,-999.0,57,0.00,,,0.00,SSEC-RIG,2013-06-14 02:55:00,
2013-06-13 22:00:00,70.1,55.1,30.04,NE,55,5.4,-999.0,58,0.00,,,0.00,SSEC-RIG,2013-06-14 03:00:00,
2013-06-13 22:05:00,69.9,55.0,30.03,ENE,58,5.8,-999.0,58,0.00,,,0.00,SSEC-RIG,2013-06-14 03:05:00,
2013-06-13 22:10:00,70.0,54.7,30.03,ENE,59,5.9,-999.0,58,0.00,,,0.00,SSEC-RIG,2013-06-14 03:10:00,
2013-06-13 22:15:00,70.1,54.5,30.03,ENE,66,6.2,-999.0,57,0.00,,,0.00,SSEC-RIG,2013-06-14 03:15:00,
2013-06-13 22:20:00,70.0,54.6,30.03,ENE,67,6.8,-999.0,57,0.00,,,0.00,SSEC-RIG,2013-06-14 03:20:00,
2013-06-13 22:25:00,70.0,54.6,30.03,ENE,65,7.9,-999.0,57,0.00,,,0.00,SSEC-RIG,2013-06-14 03:25:00,
2013-06-13 22:30:00,69.7,55.0,30.03,ENE,65,7.6,-999.0,59,0.00,,,0.00,SSEC-RIG,2013-06-14 03:30:00,
2013-06-13 22:40:00,69.3,55.3,30.03,ENE,60,6.9,-999.0,60,0.00,,,0.00,SSEC-RIG,2013-06-14 03:40:00,
2013-06-13 22:45:00,69.1,55.5,30.03,NE,55,5.9,-999.0,61,0.00,,,0.00,SSEC-RIG,2013-06-14 03:45:00,
2013-06-13 22:50:00,69.1,55.4,30.03,NE,56,6.0,-999.0,61,0.00,,,0.00,SSEC-RIG,2013-06-14 03:50:00,
2013-06-13 23:00:00,68.7,55.6,30.03,NE,54,6.3,-999.0,62,0.00,,,0.00,SSEC-RIG,2013-06-14 04:00:00,
2013-06-13 23:05:00,68.5,56.2,30.04,NE,46,6.0,-999.0,64,0.00,,,0.00,SSEC-RIG,2013-06-14 04:05:00,
2013-06-13 23:10:00,68.5,56.5,30.04,NE,44,5.9,-999.0,65,0.00,,,0.00,SSEC-RIG,2013-06-14 04:10:00,
2013-06-13 23:15:00,68.1,57.2,30.04,NE,41,6.0,-999.0,67,0.00,,,0.00,SSEC-RIG,2013-06-14 04:15:00,
2013-06-13 23:20:00,68.0,56.2,30.04,NE,42,8.0,-999.0,65,0.00,,,0.00,SSEC-RIG,2013-06-14 04:20:00,
2013-06-13 23:25:00,67.7,56.5,30.04,NE,49,7.9,-999.0,66,0.00,,,0.00,SSEC-RIG,2013-06-14 04:25:00,
2013-06-13 23:30:00,67.4,56.7,30.04,NE,50,8.4,-999.0,68,0.00,,,0.00,SSEC-RIG,2013-06-14 04:30:00,
2013-06-13 23:35:00,67.6,55.3,30.04,ENE,63,12.1,-999.0,64,0.00,,,0.00,SSEC-RIG,2013-06-14 04:35:00,
2013-06-13 23:40:00,67.4,55.3,30.04,ENE,70,8.6,-999.0,64,0.00,,,0.00,SSEC-RIG,2013-06-14 04:40:00,
2013-06-13 23:45:00,66.9,55.5,30.04,East,83,13.8,18.1,66,0.00,,,0.00,SSEC-RIG,2013-06-14 04:45:00,
2013-06-13 23:50:00,66.3,56.4,30.04,East,99,11.7,16.3,70,0.00,,,0.00,SSEC-RIG,2013-06-14 04:50:00,
2013-06-13 23:55:00,65.7,57.9,30.04,ESE,122,11.9,16.3,75,0.00,,,0.00,SSEC-RIG,2013-06-14 04:55:00,